Location: Nairn
(57.5833°N, 3.8667°W)
Time: 01:39:11
(UTC+00:00)

Meteor 1-11 Rocket - Pass Details

Date: 07 August 2020
Orbit: 832 x 915 km, 81.2° (Epoch: 19 September)

Event Time Altitude Azimuth Distance (km) Brightness Sun altitude
Exits shadow 00:02:15 21° 203° (SSW) 1,829 4.9 -16.0°
Maximum altitude 00:06:08 77° 287° (WNW) 894 3.8 -16.0°
Drops below altitude 10° 00:11:56 10° 14° (NNE) 2,548 7.4 -16.0°
Sets 00:14:26 0° 16° (NNE) 3,503 8.4 -16.1°
